Location: Krakow
(50.0830°N, 19.9170°E)
Time: 12:49:49
(UTC+01:00)

Vanguard 2 - Pass Details

Date: 11 December 2023
Orbit: 553 x 2919 km, 32.9° (Epoch: 24 February)

Event Time Altitude Azimuth Distance (km) Brightness Sun altitude
Rises 22:14:11 0° 261° (W) 6,763 12.5 -58.8°
Reaches altitude 10° 22:19:14 10° 254° (WSW) 5,737 12.0 -59.3°
Enters shadow 22:24:04 20° 244° (WSW) 4,807 11.5 -59.7°
